Powrót do katalogu

JILIN-1 GAOFEN 06A 26 XING

AktywnyNaukaSSO
NORAD 57037·PAYLOAD·🇨🇳 China
Ta nazwa satelity nie została jeszcze potwierdzona przez oficjalne źródła.

Wystrzelony Jun 15, 2023 z Taiyuan Satellite Launch Center

Loading…

Następne Przeloty (najbliższe 24 godziny)

TLE

ŚwieżeSource: Space-Track

Epoka: Sep 14, 2026, 13:29 UTC

1 57037U 23085AK  26257.56186436  .00005207  00000-0  25324-3 0  9994
2 57037  97.4908   2.0614 0006952 142.9917 217.1798 15.18823682179870

Śledź JILIN-1 GAOFEN 06A 26 XING w czasie rzeczywistym z AllMySat

Download on the App Store